Taloyoak, Nunavut

12:21 AM MDT on June 27, 2017 (GMT -0600)
Taloyoak

Weather History for CYYH - February, 2013

Change the Weather History Date:

Sunday, February 3, 2013

  Actual Average Record
Temperature  
Mean Temperature -34 °F -  
Max Temperature -31 °F -19 °F 5 °F (2012)
Min Temperature -38 °F -31 °F -43 °F (2007)
Degree Days  
Heating Degree Days 100    
Moisture  
Dew Point -42 °F    
Average Humidity 57    
Maximum Humidity 75    
Minimum Humidity 36    
Precipitation  
Precipitation 0.00 in - - ()
Sea Level Pressure  
Sea Level Pressure 29.53 in    
Wind  
Wind Speed 7 mph ()    
Max Wind Speed 14 mph    
Max Gust Speed -    
Visibility 15.0 miles    
Events Snow    
Averages and records for this station are not official NWS values.
T = Trace of Precipitation, MM = Missing Value Source: Averaged Metar Reports

Daily Weather History Graph

Daily Weather History Graph

Search for Another Location

Airport or City:

Trip Planner

Search our weather history database for the weather conditions in past years. The results will help you decide how hot, cold, wet, or windy it might be!

Date:

Astronomy

Feb. 03, 2013 Rise Set
Actual Time 9:40 AM CST 3:17 PM CST
Civil Twilight 8:21 AM CST 4:36 PM CST
Nautical Twilight 7:06 AM CST 5:51 PM CST
Astronomical Twilight 5:57 AM CST 7:00 PM CST
Moon 3:28 AM CST (2/3) 8:26 AM CST (2/3)
Length of Visible Light 8h 14m
Length of Day
5h 37m
Waning Gibbous, 48% of the Moon is Illuminated
Feb 3
Waning Gibbous
Feb 10
New
Feb 17
First Quarter
Feb 25
Full
Mar 4
Last Quarter

Hourly Weather History & Observations

Time (CST) Temp. Windchill Dew Point Humidity Pressure Visibility Wind Dir Wind Speed Gust Speed Precip Events Conditions
12:00 AM -28 °F - -39 °F 36% 29.44 in 15 mi NW 13.8 mph - -   Partly Cloudy
12:00 AM -29.2 °F -55.8 °F -38.2 °F 62% 29.44 in 15.0 mi NW 13.8 mph - N/A Snow Low Drifting Snow
1:00 AM -29.2 °F -53.7 °F -40.0 °F 56% 29.45 in 15.0 mi NW 11.5 mph - N/A   Clear
2:00 AM -29.2 °F -53.7 °F -40.0 °F 56% 29.45 in 15.0 mi WNW 11.5 mph - N/A   Clear
3:00 AM -29.2 °F -54.8 °F -41.8 °F 51% 29.46 in 15.0 mi NW 12.7 mph - N/A   Clear
4:00 AM -31.0 °F -58.1 °F -41.8 °F 56% 29.47 in 15.0 mi NW 13.8 mph - N/A   Clear
5:00 AM -31.0 °F -56.0 °F -36.4 °F 75% 29.47 in 15.0 mi NW 11.5 mph - N/A   Partly Cloudy
6:00 AM -32 °F - -38 °F 59% 29.47 in 15 mi North 6.9 mph - -   Scattered Clouds
6:00 AM -31.0 °F -50.3 °F -38.2 °F 68% 29.47 in 15.0 mi North 6.9 mph - N/A   Partly Cloudy
7:00 AM -32.8 °F -52.4 °F -45.4 °F 50% 29.47 in 15.0 mi North 6.9 mph - N/A   Partly Cloudy
8:00 AM -32.8 °F -52.4 °F -45.4 °F 50% 29.48 in 15.0 mi North 6.9 mph - N/A   Partly Cloudy
9:00 AM -34.6 °F -47.4 °F -47.2 °F 50% 29.50 in 15.0 mi NNE 3.5 mph - N/A   Partly Cloudy
10:00 AM -36.4 °F -54.8 °F - N/A% 29.50 in 15.0 mi NW 5.8 mph - N/A   Partly Cloudy
11:00 AM -34.6 °F -52.6 °F -40.0 °F 75% 29.51 in 15.0 mi North 5.8 mph - N/A   Partly Cloudy
12:00 PM -35 °F - -41 °F 57% 29.52 in 15 mi Calm Calm - -   Scattered Clouds
12:00 PM -34.6 °F - -40.0 °F 75% 29.52 in 15.0 mi Calm Calm - N/A   Partly Cloudy
1:00 PM -32.8 °F -45.3 °F -45.4 °F 50% 29.53 in 15.0 mi West 3.5 mph - N/A   Partly Cloudy
2:00 PM -34.6 °F - -47.2 °F 50% 29.55 in 15.0 mi SSW 2.3 mph - N/A   Partly Cloudy
3:00 PM -34.6 °F -47.4 °F -47.2 °F 50% 29.57 in 15.0 mi South 3.5 mph - N/A   Partly Cloudy
4:00 PM -36.4 °F -49.4 °F - N/A% 29.59 in 15.0 mi SW 3.5 mph - N/A   Partly Cloudy
5:00 PM -36.4 °F - - N/A% 29.60 in 15.0 mi SSW 2.3 mph - N/A   Partly Cloudy
6:00 PM -36 °F - - % 29.61 in 15 mi South 4.6 mph - -   Scattered Clouds
6:00 PM -36.4 °F -52.4 °F - N/A% 29.61 in 15.0 mi South 4.6 mph - N/A   Partly Cloudy
7:00 PM -36.4 °F -49.4 °F - N/A% 29.62 in 15.0 mi South 3.5 mph - N/A   Partly Cloudy
8:00 PM -36.4 °F -49.4 °F - N/A% 29.64 in 15.0 mi SSE 3.5 mph - N/A   Partly Cloudy
9:00 PM -36.4 °F - - N/A% 29.65 in 15.0 mi SSE 2.3 mph - N/A   Partly Cloudy
10:00 PM -38.2 °F - - N/A% 29.64 in 15.0 mi SSW 2.3 mph - N/A   Clear
11:00 PM -38.2 °F -54.5 °F - N/A% 29.66 in 15.0 mi South 4.6 mph - N/A   Clear